When you browse on this site, cookies collect data to enhance your experience and personalize the content and advertising you see.
Visit our Privacy Policy to learn more. By continuing to use the site, you agree to this use of cookies and data.
  • In Czech Republic
  • List of Countries
  • For 7 days
  • Water Temperature
  • Satellite Maps
  • Weather Map
  • Weather Widgets
  • user-avatar
    Login

    Hourly Weather Salva

    Today, 21 June, Friday

    Time Temperature Precipitation Wind Pressure Humidity
    00:00 +34°C° 0 mm 4 mps 750 mmHg 42%
    01:00 +34°C° 0 mm 4 mps 750 mmHg 40%
    02:00 +34°C° 0 mm 5 mps 750 mmHg 38%
    03:00 +34°C° 0 mm 5 mps 749 mmHg 36%
    04:00 +34°C° 0 mm 5 mps 750 mmHg 33%
    05:00 +34°C° 0 mm 5 mps 751 mmHg 31%
    06:00 +35°C° 0 mm 6 mps 751 mmHg 28%
    07:00 +38°C° 0 mm 7 mps 751 mmHg 26%
    08:00 +40°C° 0 mm 8 mps 751 mmHg 24%
    09:00 +43°C° 0 mm 9 mps 752 mmHg 22%
    10:00 +44°C° 0 mm 9 mps 751 mmHg 21%
    11:00 +45°C° 0 mm 9 mps 751 mmHg 19%
    12:00 +47°C° 0 mm 10 mps 751 mmHg 18%
    13:00 +45°C° 0 mm 10 mps 750 mmHg 18%
    14:00 +45°C° 0 mm 10 mps 750 mmHg 18%
    15:00 +45°C° 0 mm 10 mps 749 mmHg 18%
    16:00 +44°C° 0 mm 9 mps 749 mmHg 19%
    17:00 +41°C° 0 mm 7 mps 750 mmHg 21%
    18:00 +40°C° 0 mm 6 mps 750 mmHg 22%
    19:00 +37°C° 0 mm 5 mps 750 mmHg 26%
    20:00 +36°C° 0 mm 4 mps 750 mmHg 30%
    21:00 +34°C° 0 mm 2 mps 751 mmHg 34%
    22:00 +33°C° 0 mm 3 mps 750 mmHg 37%
    23:00 +33°C° 0 mm 3 mps 750 mmHg 40%

    Tomorrow, 22 June, Saturday

    Time Temperature Precipitation Wind Pressure Humidity
    00:00 +33°C° 0 mm 3 mps 750 mmHg 43%
    01:00 +33°C° 0 mm 3 mps 750 mmHg 40%
    02:00 +31°C° 0 mm 3 mps 750 mmHg 38%
    03:00 +31°C° 0 mm 3 mps 749 mmHg 35%
    04:00 +33°C° 0 mm 3 mps 750 mmHg 34%
    05:00 +33°C° 0 mm 3 mps 750 mmHg 32%
    06:00 +33°C° 0 mm 3 mps 751 mmHg 30%
    07:00 +36°C° 0 mm 4 mps 751 mmHg 25%
    08:00 +38°C° 0 mm 4 mps 751 mmHg 20%
    09:00 +41°C° 0 mm 5 mps 751 mmHg 16%
    10:00 +42°C° 0 mm 5 mps 751 mmHg 16%
    11:00 +43°C° 0 mm 4 mps 751 mmHg 16%
    12:00 +44°C° 0 mm 4 mps 750 mmHg 17%
    13:00 +44°C° 0 mm 4 mps 750 mmHg 16%
    14:00 +45°C° 0 mm 4 mps 750 mmHg 15%
    15:00 +45°C° 0 mm 4 mps 749 mmHg 14%
    16:00 +44°C° 0 mm 4 mps 749 mmHg 20%
    17:00 +42°C° 0 mm 5 mps 749 mmHg 25%
    18:00 +40°C° 0 mm 5 mps 749 mmHg 30%
    19:00 +39°C° 0 mm 5 mps 750 mmHg 35%
    20:00 +37°C° 0 mm 4 mps 750 mmHg 40%
    21:00 +35°C° 0 mm 4 mps 751 mmHg 45%
    22:00 +35°C° 0 mm 3 mps 751 mmHg 45%
    23:00 +34°C° 0 mm 3 mps 750 mmHg 45%

    Day after tomorrow, 23 June, Sunday

    Time Temperature Precipitation Wind Pressure Humidity
    00:00 +34°C° 0 mm 2 mps 750 mmHg 46%
    01:00 +32°C° 0 mm 2 mps 750 mmHg 47%
    02:00 +32°C° 0 mm 2 mps 750 mmHg 48%
    03:00 +31°C° 0 mm 1 mps 750 mmHg 49%
    04:00 +32°C° 0 mm 1 mps 750 mmHg 47%
    05:00 +32°C° 0 mm 1 mps 751 mmHg 45%
    06:00 +31°C° 0 mm 0 mps 751 mmHg 43%
    07:00 +35°C° 0 mm 1 mps 751 mmHg 37%
    08:00 +38°C° 0 mm 2 mps 751 mmHg 31%
    09:00 +40°C° 0 mm 3 mps 752 mmHg 26%
    10:00 +43°C° 0 mm 3 mps 751 mmHg 24%
    11:00 +44°C° 0 mm 3 mps 751 mmHg 22%
    12:00 +46°C° 0 mm 3 mps 751 mmHg 20%
    13:00 +47°C° 0 mm 4 mps 750 mmHg 20%
    14:00 +47°C° 0 mm 4 mps 750 mmHg 20%
    15:00 +47°C° 0 mm 5 mps 750 mmHg 20%
    16:00 +46°C° 0 mm 5 mps 750 mmHg 22%
    17:00 +45°C° 0 mm 6 mps 750 mmHg 25%
    18:00 +44°C° 0 mm 6 mps 750 mmHg 27%
    19:00 +42°C° 0 mm 5 mps 750 mmHg 30%
    20:00 +40°C° 0 mm 4 mps 751 mmHg 32%
    21:00 +38°C° 0 mm 3 mps 751 mmHg 35%
    22:00 +38°C° 0 mm 2 mps 751 mmHg 35%
    23:00 +37°C° 0 mm 2 mps 750 mmHg 35%

    24 June, Monday

    Time Temperature Precipitation Wind Pressure Humidity
    00:00 +37°C° 0 mm 2 mps 750 mmHg 34%
    01:00 +37°C° 0 mm 2 mps 750 mmHg 33%
    02:00 +36°C° 0 mm 2 mps 749 mmHg 33%
    03:00 +36°C° 0 mm 2 mps 749 mmHg 32%
    04:00 +36°C° 0 mm 2 mps 750 mmHg 32%
    05:00 +37°C° 0 mm 2 mps 750 mmHg 31%
    06:00 +37°C° 0 mm 3 mps 751 mmHg 31%
    07:00 +40°C° 0 mm 3 mps 751 mmHg 27%
    08:00 +43°C° 0 mm 4 mps 751 mmHg 24%
    09:00 +46°C° 0 mm 5 mps 751 mmHg 20%
    10:00 +47°C° 0 mm 5 mps 751 mmHg 18%
    11:00 +48°C° 0 mm 6 mps 751 mmHg 17%
    12:00 +49°C° 0 mm 6 mps 751 mmHg 15%
    13:00 +49°C° 0 mm 6 mps 750 mmHg 15%
    14:00 +49°C° 0 mm 6 mps 750 mmHg 15%
    15:00 +50°C° 0 mm 7 mps 749 mmHg 15%
    16:00 +48°C° 0 mm 6 mps 749 mmHg 15%
    17:00 +47°C° 0 mm 5 mps 749 mmHg 16%
    18:00 +44°C° 0 mm 4 mps 750 mmHg 16%
    19:00 +43°C° 0 mm 3 mps 750 mmHg 18%
    20:00 +40°C° 0 mm 2 mps 750 mmHg 19%
    21:00 +39°C° 0 mm 1 mps 750 mmHg 21%
    22:00 +37°C° 0 mm 1 mps 750 mmHg 21%
    23:00 +37°C° 0 mm 1 mps 750 mmHg 22%

    25 June, Tuesday

    Time Temperature Precipitation Wind Pressure Humidity
    00:00 +36°C° 0 mm 1 mps 749 mmHg 23%
    01:00 +37°C° 0 mm 2 mps 749 mmHg 23%
    02:00 +37°C° 0 mm 2 mps 749 mmHg 22%
    03:00 +37°C° 0 mm 2 mps 749 mmHg 22%
    04:00 +38°C° 0 mm 2 mps 749 mmHg 22%
    05:00 +38°C° 0 mm 2 mps 750 mmHg 21%
    06:00 +38°C° 0 mm 2 mps 750 mmHg 21%
    07:00 +42°C° 0 mm 3 mps 750 mmHg 17%
    08:00 +45°C° 0 mm 4 mps 751 mmHg 14%
    09:00 +49°C° 0 mm 5 mps 751 mmHg 10%
    10:00 +51°C° 0 mm 6 mps 750 mmHg 9%
    11:00 +52°C° 0 mm 7 mps 750 mmHg 8%
    12:00 +55°C° 0 mm 7 mps 750 mmHg 7%
    13:00 +55°C° 0 mm 8 mps 749 mmHg 7%
    14:00 +54°C° 0 mm 8 mps 748 mmHg 7%
    15:00 +54°C° 0 mm 8 mps 748 mmHg 8%
    16:00 +51°C° 0 mm 7 mps 748 mmHg 10%
    17:00 +48°C° 0 mm 6 mps 748 mmHg 12%
    18:00 +46°C° 0 mm 5 mps 748 mmHg 14%
    19:00 +43°C° 0 mm 4 mps 748 mmHg 17%
    20:00 +41°C° 0 mm 4 mps 749 mmHg 21%
    21:00 +38°C° 0 mm 3 mps 749 mmHg 25%
    22:00 +37°C° 0 mm 3 mps 749 mmHg 26%
    23:00 +37°C° 0 mm 3 mps 749 mmHg 27%

    26 June, Wednesday

    Time Temperature Precipitation Wind Pressure Humidity
    00:00 +36°C° 0 mm 3 mps 748 mmHg 28%
    01:00 +36°C° 0 mm 2 mps 748 mmHg 30%
    02:00 +35°C° 0 mm 2 mps 748 mmHg 33%
    03:00 +34°C° 0 mm 2 mps 748 mmHg 35%
    04:00 +35°C° 0 mm 2 mps 749 mmHg 33%
    05:00 +36°C° 0 mm 3 mps 749 mmHg 32%
    06:00 +37°C° 0 mm 4 mps 750 mmHg 30%
    07:00 +40°C° 0 mm 4 mps 750 mmHg 25%
    08:00 +43°C° 0 mm 5 mps 750 mmHg 20%
    09:00 +47°C° 0 mm 5 mps 750 mmHg 15%
    10:00 +48°C° 0 mm 6 mps 750 mmHg 14%
    11:00 +50°C° 0 mm 7 mps 749 mmHg 14%
    12:00 +51°C° 0 mm 7 mps 749 mmHg 13%
    13:00 +51°C° 0 mm 8 mps 749 mmHg 12%
    14:00 +52°C° 0 mm 8 mps 748 mmHg 11%
    15:00 +53°C° 0 mm 9 mps 748 mmHg 10%
    16:00 +50°C° 0 mm 8 mps 748 mmHg 13%
    17:00 +46°C° 0 mm 7 mps 748 mmHg 17%
    18:00 +44°C° 0 mm 6 mps 748 mmHg 20%
    19:00 +41°C° 0 mm 5 mps 748 mmHg 24%
    20:00 +40°C° 0 mm 4 mps 748 mmHg 27%
    21:00 +37°C° 0 mm 2 mps 749 mmHg 30%
    22:00 +36°C° 0 mm 2 mps 748 mmHg 30%
    23:00 +36°C° 0 mm 2 mps 748 mmHg 30%
    Show more